FENGYUN 1C DEB

Satellite information

Favourite Embed

Satellite Type and Status

DEBRISIN ORBIT

Key statistics

Satellite FENGYUN 1C DEB at a glance.

Uptime

9714

Days in orbit

Revolutions

≈ 14.6

Per day

Orbit

SSO

Sun Synchronous Orbit

Inclination

98.6

Latest

Satellite identification and parameters

Extended collection of information and parameters for FENGYUN 1C DEB.

Object identification

Identified? True

Debris? True

Object name: FENGYUN 1C DEB

International designator: 1999-025HF

Object number (NORAD): 29909

Object ID (CCSDS): 29909

Country: PEOPLES REPUBLIC OF CHINA (PRC)

Current information (Y/N): Y

RCS size: SMALL

Orbital parameters

Period: 98.961 minutes

Inclination: 98.6344 deg

SMA: 7087.137 km

Apoapsis: 736.129 km

Periapsis: 681.874 km

RAAN: 90.0214 deg

Eccentricy: 0.00382774

Argument of periapsis: 16.8533 deg

Mean anomaly: 41.2531 deg

Mean motion: 14.55112451 rev/day

Mean motion (dot): 0.00014069 rev/day2

B* drag term: 0.0032327276 1/REarth

Two-line elements (TLE)

Creation date: Dec. 12, 2025, 10:14 a.m.

Reference frame: TEME

Reference center: EARTH

Epoch: Dec. 12, 2025, 5:39 a.m. UTC

TLE line 0: 0 FENGYUN 1C DEB

TLE line 1: 1 29909U 99025HF 25346.23588738 .00014069 00000-0 32327-2 0 9997

TLE line 2: 2 29909 98.6344 90.0214 0038277 16.8533 41.2531 14.55112451983986

Live tracking on map

Real-time ground track for satellite FENGYUN 1C DEB.

In-orbit conjunctions

A list of the most updated potential collisions computed for object FENGYUN 1C DEB.

Target Orbit TCA Probability of collision Miss distance Type
COSMOS 2112 LEO 2025-02-18 15:47:10 0.0001280884 967.0 (m) PAYLOAD
COSMOS 2251 DEB LEO 2024-09-25 10:33:34 0.0002426735 284.0 (m) DEBRIS
COSMOS 773 LEO 2024-08-31 22:02:31 0.0001064075 769.0 (m) PAYLOAD

Associated space launch

Chinese polar orbiting meteorological satellite

FENGYUN 1C DEB was lifted into orbit during the mission ‘Long March 4B | Feng Yun 1C’, on board a Long March 4B space rocket.

The launch took place on May 10, 1999, 1:33 a.m. from Launch Complex 7.

For more information about the launch, click the button.

Launch to space Long March 4B | Feng Yun 1C
Long March 4B | Feng Yun 1C

Agency: N/A

Status: Launch Successful

Launch date: May 10, 1999, 1:33 a.m. UTC

Rocket: Long March 4B

Launch pad: Launch Complex 7

Location: Taiyuan Satellite Launch Center, People's Republic of China

...

Latest news about this satellite

There are no fresh news available about this satellite. Check back as we update our databases every day.


Newsletter sign-up

Weekly statistics, charts and insights to help you stay on top of the space industry.